[[{"header":{"parameterUnit":"m.s-1","parameterCategory":1,"la1":30.2991,"la2":30.254,"lo1":-89.0895,"lo2":-89.0444,"dy":0.0017,"dx":0.0017,"nx":28,"ny":28,"refTime":"2024-06-24T09:00:00:Z","depth":0,"parameterNumber":2,"parameterNumberName":"U-component_of_WINDS"},"data":[0,0,0,0,0,0,0,0,0,0,0,0,0,0,0,0,0,0,0,0,0,0,0,0,0,0,0,0,0,0,0,0,0,0,0,0,0,0,0,0,0,0,0,0,0,0,0,0,0,0,0,0,0,0,0,0,0,0,4.4611,4.4612,0,4.4737,4.4739,4.474,4.4657,4.4653,4.4649,4.4646,4.4779,4.4786,4.4793,0,0,0,0,0,0,0,0,0,0,0,0,0,4.4299,4.4305,4.4611,4.4612,4.4614,4.4737,4.4739,4.474,4.4658,4.4653,4.4648,4.4644,4.4776,4.4785,4.4793,0,0,0,0,0,0,0,0,0,0,0,0,0,4.4431,4.4307,4.461,4.4587,4.4586,4.4737,4.4739,4.4741,4.4659,4.4653,4.4647,4.4642,4.4774,4.4784,4.4795,4.4976,0,0,4.4827,4.4832,0,0,0,0,0,0,0,0,4.4423,4.4442,4.4589,4.4589,4.4588,4.4675,4.4677,4.482,4.466,4.4631,4.4646,4.4639,4.4749,4.4762,4.4798,4.4982,4.4987,4.4828,4.4835,4.4839,4.4842,0,0,0,0,0,0,0,4.4414,4.4436,4.4661,4.4591,4.4591,4.4571,4.4583,4.4704,4.4721,4.4633,4.4628,4.4644,4.4748,4.4788,4.4801,4.4989,4.4828,4.4837,4.4844,4.4848,4.5325,4.5331,0,0,0,0,0,0,4.4407,4.4429,4.4657,4.4664,4.449,4.4581,4.4595,4.4653,4.472,4.4724,4.4648,4.4639,4.4773,4.4788,4.4805,4.5019,4.4839,4.4849,4.4855,4.5319,4.5326,4.5333,0,0,0,0,0,0,4.44,4.4428,4.4652,4.4545,4.4572,4.4593,4.4659,4.4659,4.4699,4.4731,4.4734,4.4686,4.4769,4.479,4.4933,4.5022,4.4854,4.4864,4.5311,4.5321,4.533,4.545,0,0,0,0,0,0,4.4392,4.4426,4.4495,4.4547,4.4578,4.4777,4.4664,4.4665,4.4717,4.4706,4.4767,4.4771,4.4766,4.4917,4.4943,4.5034,4.4872,4.5303,4.5316,4.5327,4.5438,4.5462,4.5483,0,0,0,0,0,4.4381,4.4525,4.4499,4.4527,4.4665,4.4783,4.48,4.479,4.4725,4.4794,4.4814,4.4769,4.5009,4.4933,4.4961,4.5057,4.5298,4.5312,4.5326,4.5428,4.5457,4.5482,0,0,0,0,0,0,4.4484,4.4532,4.4503,4.4668,4.4722,4.4768,4.4856,4.4822,4.4896,4.4883,4.4868,4.4883,4.5031,4.5058,4.4973,4.5234,4.5143,4.5163,4.5211,4.5239,4.5261,4.5251,4.4881,0,0,0,0,0,4.4526,4.4617,4.4654,4.4796,4.4825,4.4836,4.4887,4.4874,4.4929,4.4952,4.4983,4.5039,4.5126,4.5184,4.5267,4.5441,4.5452,4.5521,4.5543,4.5562,4.5579,4.5671,4.5702,4.5379,4.5379,4.5379,0,0,4.4614,4.4651,4.471,4.4818,4.4858,4.4953,4.4855,4.4961,4.5031,4.4968,4.5104,4.5129,4.519,4.5349,4.5421,4.5376,4.5671,4.558,4.5594,4.5602,4.5689,4.5719,4.5747,4.5389,4.5387,4.5386,0,0,4.4822,4.486,4.4981,4.5023,4.5083,4.5089,4.5119,4.517,4.5183,4.5319,4.5273,4.5357,4.5508,4.5553,4.5596,4.5818,4.5779,4.5845,4.5963,4.6053,4.6078,4.61,4.6178,4.6206,4.5863,4.5863,4.5864,0,4.4924,4.5064,4.5048,4.5156,4.5204,4.515,4.5272,4.5314,4.5399,4.5434,4.5382,4.5569,4.5607,4.5775,4.5828,4.5866,4.5897,4.5838,4.6075,4.6098,4.6118,4.6192,4.6221,4.5871,4.587,4.5869,4.5869,0,4.5185,4.5283,4.5374,4.5455,4.5514,4.5629,4.563,4.5692,4.5673,4.5684,4.5822,4.5865,4.5954,4.5993,4.5978,4.6158,4.6128,4.6077,4.5985,4.6157,4.6226,4.6254,4.5882,4.5879,4.5877,4.5875,0,0,4.5463,4.5532,4.5566,4.5601,4.5663,4.5738,4.585,4.5935,4.5987,4.6048,4.614,4.6269,4.622,4.6269,4.6257,4.6336,4.6507,4.6274,4.6275,4.6314,4.6706,4.6743,4.6776,4.6481,4.6487,4.6491,4.67,0,4.5673,4.5866,4.5854,4.6036,4.6125,4.6074,4.6171,4.622,4.6233,4.6311,4.6326,4.6416,4.6346,4.6375,4.6451,4.647,4.6585,4.6455,4.6567,4.6571,4.6551,4.6813,4.6853,4.7048,4.6727,4.6732,4.6735,0,4.5944,4.6011,4.6202,4.6247,4.6284,4.6372,4.6447,4.6523,4.6576,4.658,4.6633,4.6608,4.672,4.6625,4.6779,4.6691,4.6736,4.6752,4.6759,4.6769,4.6663,4.6827,4.7111,4.7139,4.6778,4.6774,4.6771,0,4.6125,4.6264,4.6394,4.6426,4.6484,4.6546,4.6573,4.6621,4.6672,4.6739,4.6771,4.6851,4.6894,4.6956,4.6953,4.6885,4.7108,4.7014,4.7114,4.7114,4.7163,4.716,4.7456,4.7195,4.7194,4.7194,4.7193,0,4.636,4.6479,4.6476,4.6557,4.6687,4.6672,4.6801,4.6822,4.6864,4.6947,4.6909,4.6988,4.6979,4.7058,4.7057,4.7183,4.7203,4.7209,4.7207,4.7212,4.7211,4.724,4.7226,4.7201,4.72,4.7198,4.7197,0,4.6585,4.6588,4.6727,4.6769,4.6783,4.6877,4.6912,4.6989,4.6997,4.7103,4.7127,4.7142,4.7233,4.7235,4.7341,4.7339,4.7493,4.7477,4.7475,4.7471,4.757,4.756,4.7894,4.7936,4.7649,4.7652,4.7654,0,4.6734,4.6823,4.6874,4.6926,4.6956,4.7042,4.7093,4.7081,4.7136,4.7202,4.727,4.7357,4.7426,4.7574,4.7594,4.7674,4.7658,4.777,4.767,4.7671,4.7658,4.7652,4.766,4.7789,4.7793,4.7795,4.7797,0,4.6998,4.6995,4.7069,4.7144,4.7206,4.7265,4.7319,4.7364,4.7359,4.7422,4.7514,4.7567,4.7673,4.776,4.7837,4.7864,4.783,4.7828,4.7855,4.7861,4.7855,4.7857,4.7526,4.7821,4.7818,4.7817,4.7815,4.7814,4.7189,4.7264,4.7311,4.7395,4.7434,4.7485,4.7557,4.7574,4.765,4.7734,4.7723,4.7825,4.7874,4.7973,4.8007,4.8086,4.8048,4.8088,4.8097,4.8107,4.8116,4.7843,4.8101,4.81,4.8099,4.8099,4.8098,0,4.7449,4.7476,4.7553,4.7629,4.7694,4.7654,4.7712,4.7769,4.7859,4.7907,4.7975,4.8079,4.8162,4.8188,4.8268,4.8326,4.8312,4.8348,4.8343,4.8349,4.8147,4.8115,4.8358,4.8358,4.8357,4.8357,4.8357,4.8357,4.7592,4.7717,4.7719,4.7862,4.7888,4.7986,4.8022,4.8069,4.8106,4.8224,4.8292,4.8308,4.8346,4.8429,4.8503,4.8508,4.8539,4.858,4.8579,4.839,4.8364,4.8339,4.8308,4.8587,4.8588,4.8774,4.8776,4.8777]},{"header":{"parameterUnit":"m.s-1","parameterCategory":1,"la1":30.2991,"la2":30.254,"lo1":-89.0895,"lo2":-89.0444,"dy":0.0017,"dx":0.0017,"nx":28,"ny":28,"refTime":"2024-06-24T09:00:00:Z","depth":0,"parameterNumber":3,"parameterNumberName":"V-component_of_WINDS"},"data":[0,0,0,0,0,0,0,0,0,0,0,0,0,0,0,0,0,0,0,0,0,0,0,0,0,0,0,0,0,0,0,0,0,0,0,0,0,0,0,0,0,0,0,0,0,0,0,0,0,0,0,0,0,0,0,0,0,0,1.3793,1.3794,0,1.3927,1.3929,1.3931,1.3953,1.3952,1.395,1.3949,1.4089,1.4094,1.4099,0,0,0,0,0,0,0,0,0,0,0,0,0,1.3555,1.3559,1.3792,1.3794,1.3796,1.3927,1.3929,1.3931,1.3953,1.3952,1.395,1.3949,1.4088,1.4093,1.4099,0,0,0,0,0,0,0,0,0,0,0,0,0,1.3671,1.356,1.3792,1.3823,1.3827,1.3927,1.3929,1.3931,1.3953,1.3952,1.395,1.3948,1.4086,1.4093,1.41,1.418,0,0,1.4122,1.4125,0,0,0,0,0,0,0,0,1.3664,1.3679,1.3816,1.3821,1.3825,1.3921,1.3897,1.4015,1.3954,1.3905,1.3949,1.3947,1.4035,1.4046,1.4076,1.4186,1.4192,1.4123,1.4127,1.413,1.4132,0,0,0,0,0,0,0,1.3656,1.3674,1.3846,1.3818,1.3824,1.383,1.3844,1.3919,1.3978,1.3909,1.3911,1.3927,1.4037,1.4069,1.4079,1.4194,1.4123,1.4129,1.4133,1.4136,1.4377,1.4379,0,0,0,0,0,0,1.3642,1.3667,1.3842,1.385,1.3739,1.3835,1.3852,1.3892,1.3978,1.3989,1.3928,1.3927,1.4057,1.4071,1.4084,1.4183,1.413,1.4137,1.4141,1.4375,1.4377,1.4379,0,0,0,0,0,0,1.3637,1.3658,1.3836,1.3759,1.3782,1.3841,1.3887,1.3896,1.3927,1.3992,1.4003,1.3949,1.4056,1.4074,1.4156,1.4188,1.414,1.4147,1.4372,1.4375,1.4378,1.4381,0,0,0,0,0,0,1.363,1.3656,1.3687,1.3759,1.3786,1.3905,1.3889,1.39,1.394,1.394,1.4015,1.4025,1.4056,1.4145,1.4163,1.4197,1.4153,1.437,1.4374,1.4377,1.4378,1.4384,1.4389,0,0,0,0,0,1.3622,1.3683,1.3688,1.3709,1.3826,1.3907,1.3923,1.3956,1.3942,1.3974,1.4015,1.4023,1.4181,1.4153,1.4173,1.421,1.4368,1.4372,1.4377,1.4376,1.4383,1.4389,0,0,0,0,0,0,1.3613,1.3693,1.37,1.3786,1.3839,1.3911,1.3952,1.3962,1.4022,1.4019,1.4059,1.4076,1.4155,1.4191,1.4158,1.4292,1.4273,1.4282,1.4266,1.4273,1.4278,1.4268,1.4159,0,0,0,0,0,1.3621,1.368,1.3746,1.3816,1.3843,1.3892,1.3929,1.395,1.4008,1.4031,1.4078,1.4133,1.4196,1.4236,1.4297,1.4383,1.44,1.4419,1.4424,1.4427,1.4435,1.4483,1.4492,1.4394,1.4394,1.4394,0,0,1.3639,1.3689,1.3724,1.3816,1.386,1.392,1.3912,1.3976,1.4021,1.4041,1.4121,1.4157,1.4221,1.4305,1.4345,1.4338,1.4465,1.4433,1.4436,1.4442,1.4489,1.4498,1.4506,1.4398,1.4397,1.4396,0,0,1.3702,1.3746,1.3809,1.3852,1.3918,1.3951,1.3966,1.4035,1.406,1.414,1.4156,1.421,1.4316,1.4362,1.4399,1.4476,1.4486,1.4495,1.4522,1.4568,1.4576,1.4583,1.4611,1.4621,1.4502,1.4502,1.4502,0,1.3716,1.3807,1.384,1.3903,1.3943,1.3962,1.4026,1.4067,1.4149,1.4176,1.4167,1.43,1.4345,1.4439,1.4458,1.4487,1.4506,1.4487,1.4572,1.458,1.4587,1.4614,1.4624,1.4503,1.4503,1.4503,1.4503,0,1.382,1.3883,1.3926,1.4004,1.4049,1.4112,1.4155,1.4196,1.4212,1.4245,1.4327,1.4381,1.4453,1.4476,1.4494,1.4573,1.4567,1.4564,1.4547,1.4596,1.4622,1.4633,1.4504,1.4504,1.4503,1.4503,0,0,1.3884,1.3978,1.3993,1.4029,1.4102,1.4152,1.4215,1.4285,1.4319,1.4375,1.4429,1.4518,1.4515,1.4557,1.458,1.462,1.4678,1.4612,1.4614,1.4623,1.4769,1.4771,1.4783,1.4684,1.4686,1.4688,1.4764,0,1.3956,1.407,1.4101,1.4197,1.4256,1.4273,1.4329,1.438,1.4412,1.4466,1.4502,1.4565,1.4556,1.4582,1.4622,1.4662,1.4708,1.4657,1.4736,1.4738,1.472,1.4796,1.4799,1.4868,1.4774,1.4776,1.4777,0,1.4056,1.4112,1.4215,1.4279,1.4305,1.4354,1.442,1.4471,1.4529,1.455,1.4595,1.4614,1.4681,1.4658,1.4751,1.4716,1.475,1.4774,1.4777,1.4787,1.4761,1.4808,1.4891,1.4902,1.4793,1.4792,1.4791,0,1.4092,1.4194,1.4268,1.4298,1.4375,1.4409,1.4443,1.4499,1.4539,1.4596,1.4622,1.4686,1.4721,1.477,1.4805,1.4786,1.4895,1.4876,1.4915,1.4914,1.4938,1.4936,1.5028,1.4958,1.4958,1.4958,1.4958,0,1.417,1.4232,1.4285,1.4331,1.4401,1.4435,1.4503,1.4538,1.4587,1.464,1.4659,1.4708,1.4751,1.4806,1.4834,1.4906,1.4922,1.4941,1.4948,1.494,1.4937,1.4963,1.496,1.4961,1.496,1.496,1.4959,0,1.4223,1.4261,1.4343,1.4409,1.4427,1.4476,1.4532,1.4577,1.4609,1.4676,1.4693,1.4744,1.4809,1.4848,1.4932,1.495,1.503,1.5035,1.5011,1.5014,1.5051,1.5047,1.5163,1.518,1.5098,1.5099,1.5099,0,1.4271,1.4319,1.4389,1.4425,1.4459,1.4518,1.4557,1.4592,1.4633,1.4702,1.4738,1.4805,1.486,1.4963,1.5008,1.5071,1.5078,1.5114,1.5088,1.5078,1.5079,1.5076,1.5081,1.5119,1.512,1.512,1.5121,0,1.4351,1.4367,1.4424,1.4486,1.4533,1.4584,1.4635,1.4664,1.4707,1.4752,1.4819,1.4861,1.4945,1.5011,1.5078,1.5113,1.5124,1.5128,1.5141,1.5134,1.5118,1.5127,1.5024,1.5126,1.5125,1.5125,1.5125,1.5124,1.4404,1.4447,1.4502,1.4564,1.4606,1.4653,1.4698,1.4735,1.4791,1.4862,1.4879,1.4949,1.5004,1.5095,1.5131,1.5187,1.5181,1.5199,1.5204,1.5208,1.5209,1.5108,1.5199,1.5199,1.5199,1.5199,1.5199,0,1.4485,1.4522,1.4578,1.4648,1.4697,1.4702,1.4758,1.4798,1.4859,1.491,1.4963,1.5039,1.5103,1.5151,1.5216,1.5251,1.5258,1.5267,1.5265,1.5273,1.521,1.5193,1.526,1.526,1.526,1.526,1.526,1.526,1.4534,1.4607,1.4629,1.4723,1.4759,1.4827,1.4859,1.4902,1.4942,1.5026,1.5078,1.5109,1.5159,1.5227,1.5286,1.5298,1.5321,1.533,1.5343,1.5284,1.5277,1.5271,1.5255,1.5334,1.5334,1.5402,1.5402,1.5403]}]]